Torna al catalogo

STARLINK-33848

AttivoComunicazioniVLEO
NORAD 63705·PAYLOAD·🇺🇸 United States

Lanciato Apr 28, 2025 da Vandenberg Space Force Base

Loading…

Prossimi Passaggi (prossime 24 ore)

TLE

AggiornatoSource: CelesTrak SupGP

Epoca: Sep 14, 2026, 21:01 UTC

1 63705C 25087J   26257.87618056  .00030716  00000+0  90768-3 0  2572
2 63705  53.1599  60.1105 0001215  83.2549 316.6634 15.34369584    16

Traccia STARLINK-33848 in tempo reale con AllMySat

Download on the App Store